[[{"header":{"parameterUnit":"m.s-1","parameterCategory":1,"la1":30.2992,"la2":30.254,"lo1":-89.0895,"lo2":-89.0443,"dy":0.0025,"dx":0.0025,"nx":19,"ny":19,"refTime":"2026-05-23T03:00:00:Z","depth":0,"parameterNumber":2,"parameterNumberName":"U-component_of_WINDS"},"data":[0,0,0,-1.1888,-1.1888,-1.191,-1.191,-1.1938,-1.1939,0,0,0,0,0,0,0,0,0,0,0,-1.1885,-1.1885,-1.1887,-1.1888,-1.191,-1.191,-1.1938,-1.1939,0,0,0,0,0,0,0,0,0,0,0,-1.1885,-1.1885,-1.1885,-1.1888,-1.191,-1.191,-1.1938,-1.1921,0,0,0,0,0,0,0,0,0,0,-1.1899,-1.1901,-1.1885,-1.1885,-1.1888,-1.191,-1.191,-1.192,-1.1922,-1.1929,0,-1.194,0,-1.194,-1.1941,-1.1941,0,0,0,-1.1885,-1.19,-1.1902,-1.1886,-1.1889,-1.191,-1.1899,-1.1921,-1.1923,-1.1932,-1.1941,-1.1941,-1.194,-1.1941,-1.1941,-1.2,-1.2,0,0,-1.1884,-1.189,-1.1901,-1.1904,-1.1904,-1.1899,-1.19,-1.1922,-1.1931,-1.1941,-1.1942,-1.1941,-1.1941,-1.1941,-1.1999,-1.2,0,0,0,-1.1882,-1.189,-1.1892,-1.1903,-1.1907,-1.1899,-1.1901,-1.193,-1.193,-1.1942,-1.1941,-1.1941,-1.1942,-1.1999,-1.1999,-1.2027,0,0,0,-1.1881,-1.1889,-1.1891,-1.1896,-1.1907,-1.192,-1.1908,-1.1929,-1.1931,-1.1941,-1.1941,-1.1942,-1.1998,-1.1999,-1.2025,-1.2038,0,0,0,-1.1882,-1.1889,-1.1894,-1.1896,-1.1906,-1.1919,-1.192,-1.1929,-1.193,-1.1941,-1.1942,-1.1998,-1.1999,-1.2023,-1.2036,-1.2054,0,0,0,-1.1884,-1.1919,-1.1894,-1.1932,-1.1906,-1.1937,-1.192,-1.1943,-1.1955,-1.1942,-1.1998,-1.1999,-1.2023,-1.2034,-1.2052,-1.2069,-1.2078,0,0,-1.1932,-1.1925,-1.1946,-1.1925,-1.1962,-1.1933,-1.1972,-1.1977,-1.1971,-1.1989,-1.1991,-1.2025,-1.2036,-1.2053,-1.2124,-1.2131,0,0,0,-1.1964,-1.1979,-1.1987,-1.2,-1.2004,-1.2007,-1.2005,-1.2005,-1.202,-1.1983,-1.2037,-1.2043,-1.2053,-1.2061,-1.2067,-1.2073,-1.2004,-1.2004,-1.2004,-1.2042,-1.2031,-1.2064,-1.2055,-1.2067,-1.2062,-1.2069,-1.2068,-1.2056,-1.2068,-1.2074,-1.2118,-1.2128,-1.2132,-1.2139,-1.2083,-1.2083,-1.2083,-1.2083,-1.2109,-1.2127,-1.2107,-1.2131,-1.2118,-1.2138,-1.2132,-1.2121,-1.2135,-1.2114,-1.2123,-1.21,-1.214,-1.2145,-1.2085,-1.2085,-1.2084,-1.2084,-1.2084,-1.2158,-1.2165,-1.2164,-1.2177,-1.2188,-1.2176,-1.2189,-1.2177,-1.2166,-1.2174,-1.2176,-1.2176,-1.2172,-1.2176,-1.2176,-1.2176,-1.2176,-1.2177,-1.2177,-1.2209,-1.2207,-1.2221,-1.2225,-1.2228,-1.2231,-1.2222,-1.2224,-1.2223,-1.2213,-1.2213,-1.2196,-1.2146,-1.2133,-1.2179,-1.2179,-1.2178,-1.2178,-1.2178,-1.2279,-1.226,-1.2282,-1.2285,-1.2285,-1.2293,-1.2277,-1.2281,-1.228,-1.2286,-1.2266,-1.2232,-1.2224,-1.2219,-1.2208,-1.2271,-1.2271,-1.2271,-1.2271,-1.232,-1.2314,-1.233,-1.2335,-1.2338,-1.2324,-1.2343,-1.2334,-1.2322,-1.232,-1.2309,-1.2293,-1.2289,-1.2283,-1.2277,-1.2266,-1.2342,-1.2342,-1.2342,-1.2361,-1.2354,-1.2375,-1.2363,-1.2361,-1.2358,-1.2374,-1.2377,-1.2359,-1.2345,-1.2317,-1.2314,-1.2288,-1.2281,-1.2267,-1.2258,-1.2238,0,0]},{"header":{"parameterUnit":"m.s-1","parameterCategory":1,"la1":30.2992,"la2":30.254,"lo1":-89.0895,"lo2":-89.0443,"dy":0.0025,"dx":0.0025,"nx":19,"ny":19,"refTime":"2026-05-23T03:00:00:Z","depth":0,"parameterNumber":3,"parameterNumberName":"V-component_of_WINDS"},"data":[0,0,0,-1.6368,-1.6367,-1.6311,-1.6311,-1.6247,-1.6246,0,0,0,0,0,0,0,0,0,0,0,-1.639,-1.639,-1.6368,-1.6366,-1.6311,-1.6311,-1.6247,-1.6246,0,0,0,0,0,0,0,0,0,0,0,-1.639,-1.639,-1.6389,-1.6366,-1.6311,-1.631,-1.6247,-1.6286,0,0,0,0,0,0,0,0,0,0,-1.6339,-1.6365,-1.639,-1.6389,-1.6366,-1.6311,-1.631,-1.6288,-1.6283,-1.6275,0,-1.6271,0,-1.6257,-1.6242,-1.6242,0,0,0,-1.6362,-1.6369,-1.6348,-1.6389,-1.6366,-1.6311,-1.6335,-1.6285,-1.6281,-1.627,-1.627,-1.6267,-1.6256,-1.6242,-1.6242,-1.621,-1.621,0,0,-1.6365,-1.6383,-1.6352,-1.6346,-1.6356,-1.6336,-1.6333,-1.6282,-1.6283,-1.6269,-1.6265,-1.6255,-1.6242,-1.6241,-1.621,-1.621,0,0,0,-1.6377,-1.6385,-1.6366,-1.6349,-1.6338,-1.6335,-1.6331,-1.6285,-1.6277,-1.6264,-1.6254,-1.6241,-1.6241,-1.621,-1.621,-1.623,0,0,0,-1.6379,-1.6392,-1.6367,-1.6378,-1.6339,-1.6311,-1.6335,-1.6281,-1.6275,-1.6255,-1.6241,-1.624,-1.621,-1.621,-1.623,-1.6237,0,0,0,-1.6391,-1.6393,-1.6387,-1.6379,-1.6356,-1.6312,-1.6301,-1.6279,-1.6269,-1.6242,-1.624,-1.621,-1.621,-1.6229,-1.6236,-1.6233,0,0,0,-1.641,-1.6407,-1.6388,-1.638,-1.6356,-1.6325,-1.6301,-1.6277,-1.6256,-1.6241,-1.621,-1.621,-1.6229,-1.6235,-1.6232,-1.6234,-1.6236,0,0,-1.6415,-1.6408,-1.6401,-1.6383,-1.636,-1.6332,-1.631,-1.6275,-1.6256,-1.6226,-1.6225,-1.623,-1.6236,-1.6233,-1.6244,-1.6246,0,0,0,-1.6409,-1.6405,-1.6394,-1.6376,-1.6349,-1.6325,-1.6291,-1.6277,-1.6251,-1.6245,-1.6228,-1.6231,-1.6228,-1.6228,-1.623,-1.6226,-1.6211,-1.6211,-1.6211,-1.6442,-1.6418,-1.6405,-1.6373,-1.6355,-1.6319,-1.6302,-1.6277,-1.6258,-1.6254,-1.6246,-1.6255,-1.6256,-1.6257,-1.6253,-1.6244,-1.6244,-1.6244,-1.6244,-1.6447,-1.6436,-1.641,-1.6388,-1.6362,-1.6343,-1.6307,-1.6293,-1.6271,-1.626,-1.6257,-1.6247,-1.626,-1.6255,-1.6246,-1.6246,-1.6245,-1.6245,-1.6245,-1.6466,-1.6456,-1.644,-1.6409,-1.6388,-1.6355,-1.6334,-1.6311,-1.6288,-1.6285,-1.6272,-1.6272,-1.6268,-1.6281,-1.6281,-1.6281,-1.6281,-1.6281,-1.6281,-1.6492,-1.6472,-1.6458,-1.6428,-1.6412,-1.6387,-1.6349,-1.6332,-1.6307,-1.6291,-1.6291,-1.6272,-1.6266,-1.6264,-1.6281,-1.6281,-1.6281,-1.6281,-1.6281,-1.6506,-1.6499,-1.6477,-1.6461,-1.6422,-1.6401,-1.6371,-1.6338,-1.632,-1.631,-1.629,-1.629,-1.628,-1.6279,-1.6277,-1.6296,-1.6296,-1.6296,-1.6296,-1.6522,-1.6514,-1.6486,-1.6461,-1.6434,-1.6404,-1.6378,-1.6347,-1.6314,-1.6301,-1.6295,-1.6291,-1.629,-1.6281,-1.6279,-1.6278,-1.6296,-1.6296,-1.6296,-1.6528,-1.6517,-1.65,-1.6469,-1.6436,-1.6407,-1.6381,-1.6352,-1.6313,-1.6296,-1.629,-1.629,-1.6284,-1.6283,-1.6267,-1.6265,-1.6262,0,0]}]]